Regional Weather Roundup
Issued by NWS Grand Forks, ND

Home | Current Version | Previous Version | Graphics & Text | Print | Product List | Glossary On
Versions: 1 2 3 4 5 6 7 8 9 10 11 12 13 14 15 16 17 18 19 20 21 22 23 24 25 26 27 28 29 30 31 32 33 34 35 36 37 38 39 40 41 42 43 44 45 46 47 48 49 50
000
ASUS43 KFGF 231631
RWRFGF
PRAIRIE TO PINES  WEATHER ROUNDUP
NATIONAL WEATHER SERVICE EASTERN NORTH DAKOTA/GRAND FORKS ND
1100 AM CDT WED JUL 23 2014

 **SATELLITE DATA USED TO AUGMENT SKY COVER AT AUTOMATED STATIONS**
 *****  WEATHER ACROSS EASTERN NORTH DAKOTA  *****

CITY           SKY/WX    TMP DP  RH WIND       PRES   REMARKS
GRAND FORKS    PTSUNNY   69  59  70 N7        30.30S
GRAND FRKS AFB PTSUNNY   68  59  74 N8        30.32S
GRAND FRKS NWS   N/A     70 N/A N/A NW7         N/A
DEVILS LAKE    CLOUDY    66  54  63 E10       30.32S
FARGO          CLOUDY    71  60  68 NE7       30.29F
WAHPETON ARPT  MOSUNNY   73  50  43 CALM      30.29S
$$

 ***** WEATHER ACROSS CENTRAL AND WESTERN NORTH DAKOTA  *****

CITY           SKY/WX    TMP DP  RH WIND       PRES   REMARKS
BISMARCK       PTSUNNY   74  60  61 SE15      30.27F
MINOT          CLOUDY    68  63  84 E14       30.27S
JAMESTOWN      MOSUNNY   69  60  73 E7        30.31S
MINOT AFB      MOSUNNY   70  67  89 E17       30.26F
GARRISON         N/A     74  65  73 S8        30.25S
WILLISTON      SUNNY     79  61  53 S8        30.20F
DICKINSON      SUNNY     75  62  64 S17       30.23S
HETTINGER      MOSUNNY   74  62  66 SE12      30.25F
$$

 *****  OTHER AIRPORT OBSERVATIONS IN OUR AREA  *****

CITY           SKY/WX    TMP DP  RH WIND       PRES   REMARKS
WALHALLA         N/A     66  57  72 N7          N/A
GRAFTON AIRPOR FAIR      66  57  72 N8        30.31F
VALLEY CITY AR PTSUNNY   66  64  94 N3        30.32R
CANDO          FAIR      66  52  59 E8        30.34S
CAVALIER APRT  PTSUNNY   66  55  68 NE5       30.33S
GWINNER        SUNNY     72  57  60 CALM      30.32S
ROLLA          FAIR      66  50  55 E13       30.35S
 ***** THE ABOVE OBSERVATIONS ARE NON NWS ARE NOT QUALITY
       CONTROLLED AND MAY MIS-REPORT RAIN FOR SNOW...
$$

  *****  WEATHER ACROSS NORTHERN MINNESOTA  *****

CITY           SKY/WX    TMP DP  RH WIND       PRES   REMARKS
FLAG ISLAND    SUNNY     66  50  55 CALM      30.29F
WARROAD        PTSUNNY   66  57  72 NE9       30.31S
ROSEAU         MOSUNNY   68  57  68 CALM      30.30S
HALLOCK        MOSUNNY   68  55  64 NE7       30.31S
THF RVR FALLS  MOSUNNY   68  57  68 N7        30.30S
BAUDETTE       MOSUNNY   68  54  60 E6        30.31F
WASKISH        MOSUNNY   70  57  64 CALM      30.29S
CROOKSTON      PTSUNNY   68  55  64 N7        30.31R
$$
  *****  WEATHER ACROSS CENTRAL AND WEST MINNESOTA  *****

CITY           SKY/WX    TMP DP  RH WIND       PRES   REMARKS
FOSSTON        MOSUNNY   70  55  60 NW7       30.30F
BEMIDJI        MOSUNNY   70  53  56 NW9       30.29S
PARK RAPIDS    MOSUNNY   70  54  56 N9        30.28F
ELBOW LAKE     FAIR      73  56  56 N5        30.29R
WADENA         MOSUNNY   70  55  60 N3        30.29S
DETROIT LAKES  PTSUNNY   70  55  60 CALM      30.31F
MOORHEAD       CLOUDY    72  64  78 NE6       30.29F
FERGUS FALLS   MOSUNNY   73  52  46 NE5       30.28S
MORRIS MN      SUNNY     75  57  53 CALM      30.28R
STAPLES        MOSUNNY   70  54  56 NW8       30.28S
$$
  *****  WEATHER ELSEWHERE ACROSS MINNESOTA  *****

CITY           SKY/WX    TMP DP  RH WIND       PRES   REMARKS
DULUTH         MOSUNNY   71  52  50 N13       30.26R
INTRNTL FALLS  SUNNY     69  51  52 N7        30.29F
ELY            PTSUNNY   68  50  52 NE6       30.27S
CLOQUET        MOSUNNY   70  54  56 N8G17     30.25S
WHEATON        MOSUNNY   73  57  56 E3        30.30S
BRAINERD       PTSUNNY   69  54  58 N8        30.27S
HIBBING        SUNNY     70  53  54 NW12      30.27F
ALEXANDRIA     MOSUNNY   73  55  53 N6        30.30F
SAINT CLOUD    MOSUNNY   77  53  43 N8        30.26S
MINNEAPOLIS    MOSUNNY   77  52  41 VRB5      30.24F
$$

  *****  WEATHER ACROSS SOUTH DAKOTA  *****

CITY           SKY/WX    TMP DP  RH WIND       PRES   REMARKS
SIOUX FALLS    MOSUNNY   74  55  51 SE7       30.29S
BROOKINGS      NOT AVBL
WATERTOWN      SUNNY     72  53  51 SE9       30.30S
HURON          SUNNY     74  57  55 E9        30.28F
SISSETON         N/A     73  60  63 E3        30.29S
ABERDEEN       SUNNY     73  58  59 S8        30.29F
MITCHELL       MOSUNNY   76  58  53 SE10      30.30S
PIERRE         MOSUNNY   78  57  48 SE24G31   30.25R
MOBRIDGE       SUNNY     75  61  61 S17       30.25S
RAPID CITY     SUNNY     79  59  50 S20       30.23F
$$

  *****  SOME WEATHER IN NEARBY STATES *****

CITY           SKY/WX    TMP DP  RH WIND       PRES   REMARKS
GLASGOW MT     SUNNY     78  61  55 SE17G23   30.16S
GREAT FALLS MT PTSUNNY   70  60  70 S6        30.13F
CHEYENNE WY    CLOUDY    68  60  75 S9G17     30.43S
SCOTTSBLUFF NE MOSUNNY   79  62  56 S15       30.32F
OMAHA NE       MOSUNNY   78  59  51 N7        30.25R
DES MOINES IA  PTSUNNY   80  63  55 MISG      30.21R
DAVENPORT IA   SUNNY     75  60  59 NE14G22   30.20R
CHICAGO IL     MOSUNNY   70  53  54 NE17G25   30.15F
EAU CLAIRE WI  SUNNY     76  56  49 VRB3      30.22S
LA CROSSE WI   MOSUNNY   77  58  51 VRB3      30.22F
$$

  *****  SOME NATIONAL WEATHER *****

CITY           SKY/WX    TMP DP  RH WIND       PRES   REMARKS
LA GUARDIA NY  MOSUNNY   85  69  58 S13       29.90F
RALEIGH NC     MOSUNNY   86  71  60 SW6       30.05F HX  91
ATLANTA GA     PTSUNNY   82  68  61 CALM      30.11S
NEW ORLEANS LA PTSUNNY   76  72  87 CALM      30.06R
OKLAHOMA CITY  SUNNY     89  73  59 W7        30.15S HX  97
ALBUQUERQUE NM MOSUNNY   79  57  46 W3        30.39R
SALT LAKE CITY MOSUNNY   89  40  17 S9        30.12F
LOS ANGELES CA SUNNY     74  59  59 CALM      30.01S
BOISE ID       PTSUNNY   72  56  57 CALM      30.07F
SEATTLE WA     LGT RAIN  61  60  97 SW3       30.01R VSB 1/2
$$

*** WEATHER ACROSS MANITOBA...SASKATCHEWAN AND ONTARIO ***
                ***ONTARIO***

CITY           SKY/WX    TMP DP  RH WIND       PRES   REMARKS
GERALDTON      CLOUDY    63  46  55 NW6       30.20F
THUNDER BAY    PTSUNNY   66  52  59 W6        30.24S
SIOUX LOOKOUT  PTSUNNY   64  48  55 VRB2      30.29S
TORONTO        PTSUNNY   72  59  64 N14G24    29.93S
BIG TROUT LK   SUNNY     68  50  52 NW12G20   30.12S
PICKLE LAKE    PTSUNNY   66  46  48 VRB6      30.23F
DRYDEN         CLOUDY    64  45  48 W6        30.30S
KENORA         PTSUNNY   64  54  68 N5        30.33R
$$
                *** MANITOBA***

CITY           SKY/WX    TMP DP  RH WIND       PRES   REMARKS
BRANDON        MOSUNNY   70  52  52 E10       30.34F
DAUPHIN        SUNNY     70  52  52 SE7       30.33F
ISLAND LAKE    MOSUNNY   70  52  52 W9        30.25F
PILOT MOUND      N/A     66  50  55 NE10        N/A
THE PAS        MOSUNNY   75  52  43 NW2       30.28F
THOMPSON       SUNNY     73  54  49 W12       30.22F
WINNIPEG       MOSUNNY   68  52  56 N5        30.33F
LYNN LAKE      SUNNY     75  46  35 W8        30.21F
CHURCHILL      PTSUNNY   63  54  72 N15G21    30.07R SMOKE
GILLAM         PTSUNNY   70  57  64 W13       30.14S
$$
                ***SASKATCHEWAN***

CITY           SKY/WX    TMP DP  RH WIND       PRES   REMARKS
ESTEVAN        PTSUNNY   70  61  73 E16       30.26F
KINDERSLEY     PTSUNNY   73  63  68 SE12G18   30.13F
LLOYDMINSTER   MOSUNNY   68  59  73 SE18      30.09F
PRINCE ALBERT  CLOUDY    72  59  64 SE7       30.24F
REGINA         MOSUNNY   72  61  68 SE15G21   30.26S
YORKTON        SUNNY     70  50  49 SE13G18   30.31F
N. BATTLEFORD  CLOUDY    70  59  68 SE15      30.18
LA RONGE       MOSUNNY   72  57  60 S8        30.23F
SASKATOON      PTSUNNY   73  55  53 SE17      30.24F
SWIFT CURRENT  SUNNY     72  61  68 SE15      30.18R
$$
NOTE: THESE ARE AUTOMATED STATIONS WITH LIMITED QUALITY CONTROL
      "FAIR" INDICATES FEW OR NO CLOUDS BELOW 12,000 FEET WITH NO
      SIGNIFICANT WEATHER AND/OR OBSTRUCTIONS TO VISIBILITY.
      SKY/WX - SKY CONDITION AND SIGNIFICANT WEATHER.
      TMP - AIR TEMPERATURE.    DP   - DEWPOINT TEMPERATURE.
      RH  - RELATIVE HUMIDITY.  PRES - PRESSURE.
      HX  - HEAT INDEX.         WCI  - WIND CHILL INDEX.
$



USA.gov is the U.S. government's official web portal to all federal, state and local government web resources and services.